Time,TemperatureF,DewpointF,PressureIn,WindDirection,WindDirectionDegrees,WindSpeedMPH,WindSpeedGustMPH,Humidity,HourlyPrecipIn,Conditions,Clouds,dailyrainin,SoftwareType,DateUTC
2013-03-26 00:00:00,33.1,27.9,30.01,North,9,0.0,0.0,81,0.00,,---,0.00,VWS V14.01,2013-03-26 04:00:00,
2013-03-26 00:05:00,33.1,27.9,30.01,NNE,13,0.0,0.0,81,0.00,,---,0.00,VWS V14.01,2013-03-26 04:05:00,
2013-03-26 00:10:00,33.1,27.9,30.01,NNE,19,0.0,0.0,81,0.00,,---,0.00,VWS V14.01,2013-03-26 04:10:00,
2013-03-26 00:15:00,32.9,27.7,30.01,North,9,0.0,0.0,81,0.00,,---,0.00,VWS V14.01,2013-03-26 04:15:00,
2013-03-26 00:20:00,32.9,28.0,30.01,NNE,29,0.0,0.0,82,0.00,,---,0.00,VWS V14.01,2013-03-26 04:20:00,
2013-03-26 00:25:00,32.9,28.0,30.01,NNE,17,0.0,0.0,82,0.00,,---,0.00,VWS V14.01,2013-03-26 04:25:00,
2013-03-26 00:30:00,32.9,28.0,30.01,NNE,17,0.0,0.0,82,0.00,,---,0.00,VWS V14.01,2013-03-26 04:30:00,
2013-03-26 00:35:00,32.8,27.9,30.01,NNE,27,0.0,0.0,82,0.00,,---,0.00,VWS V14.01,2013-03-26 04:35:00,
2013-03-26 00:40:00,32.8,27.9,30.01,NNW,346,0.0,0.0,82,0.00,,---,0.00,VWS V14.01,2013-03-26 04:40:00,
2013-03-26 00:45:00,32.8,27.9,30.01,North,350,0.0,0.0,82,0.00,,---,0.00,VWS V14.01,2013-03-26 04:45:00,
2013-03-26 00:50:00,32.8,28.2,30.01,North,360,0.0,0.0,83,0.00,,---,0.00,VWS V14.01,2013-03-26 04:50:00,
2013-03-26 00:55:00,32.7,28.1,30.01,NNE,17,0.0,0.0,83,0.00,,---,0.00,VWS V14.01,2013-03-26 04:55:00,
2013-03-26 01:00:00,32.7,28.1,30.01,NNE,26,0.0,0.0,83,0.00,,---,0.00,VWS V14.01,2013-03-26 05:00:00,
2013-03-26 01:06:00,32.7,28.1,30.01,NNE,26,0.0,0.0,83,0.00,,---,0.00,VWS V14.01,2013-03-26 05:06:00,
2013-03-26 01:11:00,32.7,28.1,30.01,NNE,22,0.0,0.0,83,0.00,,---,0.00,VWS V14.01,2013-03-26 05:11:00,
2013-03-26 01:16:00,32.7,28.1,30.01,North,355,0.0,0.0,83,0.00,,---,0.00,VWS V14.01,2013-03-26 05:16:00,
2013-03-26 01:21:00,32.7,28.1,30.01,NNE,18,0.0,0.0,83,0.00,,---,0.00,VWS V14.01,2013-03-26 05:21:00,
2013-03-26 01:26:00,32.8,28.2,30.00,NNE,16,0.0,0.0,83,0.00,,---,0.00,VWS V14.01,2013-03-26 05:26:00,
2013-03-26 01:31:00,32.8,28.2,30.00,NNE,32,0.0,0.0,83,0.00,,---,0.00,VWS V14.01,2013-03-26 05:31:00,
2013-03-26 01:36:00,32.8,28.2,30.01,North,5,0.0,0.0,83,0.00,,---,0.00,VWS V14.01,2013-03-26 05:36:00,
2013-03-26 01:41:00,32.8,28.2,30.01,North,5,0.0,0.0,83,0.00,,---,0.00,VWS V14.01,2013-03-26 05:41:00,
2013-03-26 01:46:00,32.8,28.5,30.01,NNE,18,0.0,0.0,84,0.00,,---,0.00,VWS V14.01,2013-03-26 05:46:00,
2013-03-26 01:51:00,32.8,28.5,30.01,NNE,17,0.0,0.0,84,0.00,,---,0.00,VWS V14.01,2013-03-26 05:51:00,
2013-03-26 01:56:00,32.8,28.5,30.01,NE,41,0.0,0.0,84,0.00,,---,0.00,VWS V14.01,2013-03-26 05:56:00,
2013-03-26 02:01:00,32.8,28.5,30.01,NNE,14,0.0,0.0,84,0.00,,---,0.00,VWS V14.01,2013-03-26 06:01:00,
2013-03-26 02:06:00,32.8,28.5,30.01,North,360,0.0,0.0,84,0.00,,---,0.00,VWS V14.01,2013-03-26 06:06:00,
2013-03-26 02:11:00,32.8,28.5,30.01,North,350,0.0,0.0,84,0.00,,---,0.00,VWS V14.01,2013-03-26 06:11:00,
2013-03-26 02:17:00,32.8,28.5,30.01,NNE,30,0.0,0.0,84,0.00,,---,0.00,VWS V14.01,2013-03-26 06:17:00,
2013-03-26 02:22:00,32.8,28.5,30.01,North,5,0.0,0.0,84,0.00,,---,0.00,VWS V14.01,2013-03-26 06:22:00,
2013-03-26 02:27:00,32.9,28.6,30.01,NE,44,0.0,0.0,84,0.00,,---,0.00,VWS V14.01,2013-03-26 06:27:00,
2013-03-26 02:32:00,32.8,28.5,30.01,NE,35,0.0,0.0,84,0.00,,---,0.00,VWS V14.01,2013-03-26 06:32:00,
2013-03-26 02:37:00,32.9,28.6,30.01,NNE,27,0.0,0.0,84,0.00,,---,0.00,VWS V14.01,2013-03-26 06:37:00,
2013-03-26 02:42:00,32.8,28.5,30.01,NNE,25,0.0,0.0,84,0.00,,---,0.00,VWS V14.01,2013-03-26 06:42:00,
2013-03-26 02:47:00,32.8,28.8,30.01,NNE,28,0.0,0.0,85,0.00,,---,0.00,VWS V14.01,2013-03-26 06:47:00,
2013-03-26 02:52:00,32.7,28.7,30.01,North,5,0.0,0.0,85,0.00,,---,0.00,VWS V14.01,2013-03-26 06:52:00,
2013-03-26 02:57:00,32.7,28.7,30.01,NNE,26,0.0,0.0,85,0.00,,---,0.00,VWS V14.01,2013-03-26 06:57:00,
2013-03-26 03:02:00,32.7,29.0,30.01,North,5,0.0,0.0,86,0.00,,---,0.00,VWS V14.01,2013-03-26 07:02:00,
2013-03-26 03:07:00,32.5,28.8,30.01,North,5,0.0,0.0,86,0.00,,---,0.00,VWS V14.01,2013-03-26 07:07:00,
2013-03-26 03:12:00,32.5,28.8,30.01,NNE,25,0.0,0.0,86,0.00,,---,0.00,VWS V14.01,2013-03-26 07:12:00,
2013-03-26 03:17:00,32.5,28.8,30.01,NNE,13,0.0,0.0,86,0.00,,---,0.00,VWS V14.01,2013-03-26 07:17:00,
2013-03-26 03:22:00,32.5,28.8,30.01,NE,47,0.0,0.0,86,0.00,,---,0.00,VWS V14.01,2013-03-26 07:22:00,
2013-03-26 03:27:00,32.5,28.8,30.01,NNE,30,0.0,0.0,86,0.00,,---,0.00,VWS V14.01,2013-03-26 07:27:00,
2013-03-26 03:32:00,32.4,28.7,30.01,NNE,25,0.0,0.0,86,0.00,,---,0.00,VWS V14.01,2013-03-26 07:32:00,
2013-03-26 03:37:00,32.4,28.7,30.01,NNE,21,0.0,0.0,86,0.00,,---,0.00,VWS V14.01,2013-03-26 07:37:00,
2013-03-26 03:42:00,32.4,28.7,30.01,NNE,32,0.0,0.0,86,0.00,,---,0.00,VWS V14.01,2013-03-26 07:42:00,
2013-03-26 03:47:00,32.4,28.7,30.01,North,10,0.0,0.0,86,0.00,,---,0.00,VWS V14.01,2013-03-26 07:47:00,
2013-03-26 03:52:00,32.4,29.0,30.01,NE,35,0.0,0.0,87,0.00,,---,0.00,VWS V14.01,2013-03-26 07:52:00,
2013-03-26 03:57:00,32.4,29.0,30.00,NE,38,0.0,0.0,87,0.00,,---,0.00,VWS V14.01,2013-03-26 07:57:00,
2013-03-26 04:02:00,32.4,29.0,30.00,NNE,22,0.0,0.0,87,0.00,,---,0.00,VWS V14.01,2013-03-26 08:02:00,
2013-03-26 04:07:00,32.4,29.0,30.00,NNE,19,0.0,0.0,87,0.00,,---,0.00,VWS V14.01,2013-03-26 08:07:00,
2013-03-26 04:12:00,32.4,29.0,30.00,NNE,24,0.0,0.0,87,0.00,,---,0.00,VWS V14.01,2013-03-26 08:12:00,
2013-03-26 04:17:00,32.4,29.0,30.00,North,360,0.0,0.0,87,0.00,,---,0.00,VWS V14.01,2013-03-26 08:17:00,
2013-03-26 04:22:00,32.4,29.0,30.00,NNE,23,0.0,0.0,87,0.00,,---,0.00,VWS V14.01,2013-03-26 08:22:00,
2013-03-26 04:27:00,32.4,29.0,30.00,NNE,20,0.0,0.0,87,0.00,,---,0.00,VWS V14.01,2013-03-26 08:27:00,
2013-03-26 04:32:00,32.4,29.0,30.01,NNE,23,0.0,0.0,87,0.00,,---,0.00,VWS V14.01,2013-03-26 08:32:00,
2013-03-26 04:37:00,32.4,29.0,30.00,North,355,0.0,0.0,87,0.00,,---,0.00,VWS V14.01,2013-03-26 08:37:00,
2013-03-26 04:42:00,32.4,29.0,30.01,North,5,0.0,0.0,87,0.00,,---,0.00,VWS V14.01,2013-03-26 08:42:00,
2013-03-26 04:47:00,32.4,29.0,30.01,NNE,24,0.0,0.0,87,0.00,,---,0.00,VWS V14.01,2013-03-26 08:47:00,
2013-03-26 04:52:00,32.4,29.0,30.01,NE,43,0.0,0.0,87,0.00,,---,0.00,VWS V14.01,2013-03-26 08:52:00,
2013-03-26 04:58:00,32.4,29.0,30.01,NE,35,0.0,0.0,87,0.00,,---,0.00,VWS V14.01,2013-03-26 08:58:00,
2013-03-26 05:03:00,32.4,29.0,30.01,NNE,32,0.0,0.0,87,0.00,,---,0.00,VWS V14.01,2013-03-26 09:03:00,
2013-03-26 05:08:00,32.4,29.0,30.01,NNE,23,0.0,0.0,87,0.00,,---,0.00,VWS V14.01,2013-03-26 09:08:00,
2013-03-26 05:13:00,32.4,29.0,30.01,NNE,19,0.0,0.0,87,0.00,,---,0.00,VWS V14.01,2013-03-26 09:13:00,
2013-03-26 05:18:00,32.4,29.0,30.01,NNE,27,0.0,0.0,87,0.00,,---,0.00,VWS V14.01,2013-03-26 09:18:00,
2013-03-26 05:23:00,32.4,29.0,30.01,NNE,12,0.0,0.0,87,0.00,,---,0.00,VWS V14.01,2013-03-26 09:23:00,
2013-03-26 05:28:00,32.4,29.0,30.02,NNE,24,0.0,0.0,87,0.00,,---,0.00,VWS V14.01,2013-03-26 09:28:00,
2013-03-26 05:33:00,32.4,29.0,30.01,NNE,20,0.0,0.0,87,0.00,,---,0.00,VWS V14.01,2013-03-26 09:33:00,
2013-03-26 05:38:00,32.5,28.8,30.01,North,9,0.0,0.0,86,0.00,,---,0.00,VWS V14.01,2013-03-26 09:38:00,
2013-03-26 05:43:00,32.5,28.8,30.01,NNE,19,0.0,0.0,86,0.00,,---,0.00,VWS V14.01,2013-03-26 09:43:00,
2013-03-26 05:48:00,32.5,28.8,30.02,NNE,13,0.0,0.0,86,0.00,,---,0.00,VWS V14.01,2013-03-26 09:48:00,
2013-03-26 05:53:00,32.5,28.8,30.02,North,5,0.0,0.0,86,0.00,,---,0.00,VWS V14.01,2013-03-26 09:53:00,
2013-03-26 05:58:00,32.4,28.7,30.02,North,360,0.0,0.0,86,0.00,,---,0.00,VWS V14.01,2013-03-26 09:58:00,
2013-03-26 06:03:00,32.4,28.7,30.02,North,360,0.0,0.0,86,0.00,,---,0.00,VWS V14.01,2013-03-26 10:03:00,
2013-03-26 06:08:00,32.4,28.7,30.02,NNE,23,0.0,0.0,86,0.00,,---,0.00,VWS V14.01,2013-03-26 10:08:00,
2013-03-26 06:13:00,32.4,28.7,30.02,North,11,0.0,0.0,86,0.00,,---,0.00,VWS V14.01,2013-03-26 10:13:00,
2013-03-26 06:18:00,32.5,28.8,30.02,North,351,0.0,0.0,86,0.00,,---,0.00,VWS V14.01,2013-03-26 10:18:00,
2013-03-26 06:23:00,32.5,28.8,30.02,NNE,15,0.0,0.0,86,0.00,,---,0.00,VWS V14.01,2013-03-26 10:23:00,
2013-03-26 06:28:00,32.5,28.8,30.02,North,355,0.0,0.0,86,0.00,,---,0.00,VWS V14.01,2013-03-26 10:28:00,
2013-03-26 06:33:00,32.4,28.7,30.02,North,355,0.0,0.0,86,0.00,,---,0.00,VWS V14.01,2013-03-26 10:33:00,
2013-03-26 06:38:00,32.4,28.7,30.03,North,360,0.0,0.0,86,0.00,,---,0.00,VWS V14.01,2013-03-26 10:38:00,
2013-03-26 06:43:00,32.4,28.7,30.03,NNE,19,0.0,0.0,86,0.00,,---,0.00,VWS V14.01,2013-03-26 10:43:00,
2013-03-26 06:48:00,32.4,29.0,30.03,NNE,30,0.0,0.0,87,0.00,,---,0.00,VWS V14.01,2013-03-26 10:48:00,
2013-03-26 06:53:00,32.4,29.0,30.03,NNE,24,0.0,0.0,87,0.00,,---,0.00,VWS V14.01,2013-03-26 10:53:00,
2013-03-26 06:58:00,32.4,29.0,30.03,NNE,25,0.0,0.0,87,0.00,,---,0.00,VWS V14.01,2013-03-26 10:58:00,
2013-03-26 07:03:00,32.4,29.0,30.03,North,5,0.0,0.0,87,0.00,,---,0.00,VWS V14.01,2013-03-26 11:03:00,
2013-03-26 07:08:00,32.2,28.8,30.03,NNW,346,0.0,0.0,87,0.00,,---,0.00,VWS V14.01,2013-03-26 11:08:00,
2013-03-26 07:13:00,32.2,28.8,30.03,NNE,19,0.0,0.0,87,0.00,,---,0.00,VWS V14.01,2013-03-26 11:13:00,
2013-03-26 07:18:00,32.2,28.8,30.03,North,5,0.0,0.0,87,0.00,,---,0.00,VWS V14.01,2013-03-26 11:18:00,
2013-03-26 07:23:00,32.2,28.8,30.03,North,355,0.0,0.0,87,0.00,,---,0.00,VWS V14.01,2013-03-26 11:23:00,
2013-03-26 07:28:00,32.1,28.7,30.04,North,5,0.0,0.0,87,0.00,,---,0.00,VWS V14.01,2013-03-26 11:28:00,
2013-03-26 07:33:00,32.1,29.0,30.04,NNE,20,0.0,0.0,88,0.00,,---,0.00,VWS V14.01,2013-03-26 11:33:00,
2013-03-26 07:38:00,32.1,29.0,30.04,NNE,29,0.0,0.0,88,0.00,,---,0.00,VWS V14.01,2013-03-26 11:38:00,
2013-03-26 07:43:00,32.1,29.0,30.04,NNE,21,0.0,0.0,88,0.00,,---,0.00,VWS V14.01,2013-03-26 11:43:00,
2013-03-26 07:48:00,32.1,29.0,30.04,NNE,15,0.0,0.0,88,0.00,,---,0.00,VWS V14.01,2013-03-26 11:48:00,
2013-03-26 07:53:00,32.1,29.0,30.05,NNE,19,0.0,0.0,88,0.00,,---,0.00,VWS V14.01,2013-03-26 11:53:00,
2013-03-26 07:58:00,32.2,29.0,30.05,North,5,0.0,0.0,88,0.00,,---,0.00,VWS V14.01,2013-03-26 11:58:00,
2013-03-26 08:03:00,32.2,29.0,30.05,North,5,0.0,0.0,88,0.00,,---,0.00,VWS V14.01,2013-03-26 12:03:00,
2013-03-26 08:08:00,32.4,29.2,30.05,NNE,13,0.0,0.0,88,0.00,,---,0.00,VWS V14.01,2013-03-26 12:08:00,
2013-03-26 08:13:00,32.5,29.4,30.05,North,360,0.0,0.0,88,0.00,,---,0.00,VWS V14.01,2013-03-26 12:13:00,
2013-03-26 08:18:00,32.5,29.6,30.06,North,5,0.0,0.0,89,0.00,,---,0.00,VWS V14.01,2013-03-26 12:18:00,
2013-03-26 08:23:00,32.7,29.8,30.06,NE,34,0.0,0.0,89,0.00,,---,0.00,VWS V14.01,2013-03-26 12:23:00,
2013-03-26 08:28:00,32.8,29.9,30.06,North,9,0.0,0.0,89,0.00,,---,0.00,VWS V14.01,2013-03-26 12:28:00,
2013-03-26 08:33:00,32.8,29.6,30.06,North,10,0.0,0.0,88,0.00,,---,0.00,VWS V14.01,2013-03-26 12:33:00,
2013-03-26 08:38:00,32.8,29.6,30.06,North,5,0.0,0.0,88,0.00,,---,0.00,VWS V14.01,2013-03-26 12:38:00,
2013-03-26 08:43:00,32.9,29.7,30.06,NNE,13,0.0,0.0,88,0.00,,---,0.00,VWS V14.01,2013-03-26 12:43:00,
2013-03-26 08:48:00,33.1,29.7,30.06,NNE,26,0.0,0.0,87,0.00,,---,0.00,VWS V14.01,2013-03-26 12:48:00,
2013-03-26 08:53:00,33.1,29.7,30.06,NE,34,0.0,0.0,87,0.00,,---,0.00,VWS V14.01,2013-03-26 12:53:00,
2013-03-26 08:58:00,33.2,29.8,30.06,NNE,26,0.0,0.0,87,0.00,,---,0.00,VWS V14.01,2013-03-26 12:58:00,
2013-03-26 09:03:00,33.4,30.0,30.06,NNE,32,0.0,0.0,87,0.00,,---,0.00,VWS V14.01,2013-03-26 13:03:00,
2013-03-26 09:08:00,33.4,29.7,30.06,NNE,21,0.0,0.0,86,0.00,,---,0.00,VWS V14.01,2013-03-26 13:08:00,
2013-03-26 09:13:00,33.5,29.8,30.07,North,355,0.0,0.0,86,0.00,,---,0.00,VWS V14.01,2013-03-26 13:13:00,
2013-03-26 09:18:00,33.5,29.8,30.07,North,355,0.0,0.0,86,0.00,,---,0.00,VWS V14.01,2013-03-26 13:18:00,
2013-03-26 09:23:00,33.5,29.8,30.07,North,5,0.0,0.0,86,0.00,,---,0.00,VWS V14.01,2013-03-26 13:23:00,
2013-03-26 09:28:00,33.5,29.8,30.07,NNE,26,0.0,0.0,86,0.00,,---,0.00,VWS V14.01,2013-03-26 13:28:00,
2013-03-26 09:33:00,33.5,29.8,30.07,North,360,0.0,0.0,86,0.00,,---,0.00,VWS V14.01,2013-03-26 13:33:00,
2013-03-26 09:38:00,33.7,30.0,30.07,NE,43,0.0,0.0,86,0.00,,---,0.00,VWS V14.01,2013-03-26 13:38:00,
2013-03-26 09:43:00,33.7,30.0,30.07,North,5,0.0,0.0,86,0.00,,---,0.00,VWS V14.01,2013-03-26 13:43:00,
2013-03-26 09:48:00,33.8,30.1,30.07,NNE,19,0.0,0.0,86,0.00,,---,0.00,VWS V14.01,2013-03-26 13:48:00,
2013-03-26 09:53:00,34.0,30.3,30.07,North,360,0.0,0.0,86,0.00,,---,0.00,VWS V14.01,2013-03-26 13:53:00,
2013-03-26 09:58:00,34.1,30.1,30.07,North,349,0.0,0.0,85,0.00,,---,0.00,VWS V14.01,2013-03-26 13:58:00,
2013-03-26 10:04:00,34.1,30.1,30.07,North,355,0.0,0.0,85,0.00,,---,0.00,VWS V14.01,2013-03-26 14:04:00,
2013-03-26 10:09:00,34.1,30.1,30.07,North,355,0.0,0.0,85,0.00,,---,0.00,VWS V14.01,2013-03-26 14:09:00,
2013-03-26 10:14:00,34.3,30.3,30.08,NNE,13,0.0,0.0,85,0.00,,---,0.00,VWS V14.01,2013-03-26 14:14:00,
2013-03-26 10:19:00,34.3,30.0,30.08,NNE,19,0.0,0.0,84,0.00,,---,0.00,VWS V14.01,2013-03-26 14:19:00,
2013-03-26 10:24:00,34.4,30.1,30.08,NNE,15,0.0,0.0,84,0.00,,---,0.00,VWS V14.01,2013-03-26 14:24:00,
2013-03-26 10:29:00,34.6,30.3,30.08,NNE,19,0.0,0.0,84,0.00,,---,0.00,VWS V14.01,2013-03-26 14:29:00,
2013-03-26 10:34:00,34.6,30.3,30.08,NNW,348,0.0,0.0,84,0.00,,---,0.00,VWS V14.01,2013-03-26 14:34:00,
2013-03-26 10:39:00,34.6,30.0,30.08,NNE,17,0.0,0.0,83,0.00,,---,0.00,VWS V14.01,2013-03-26 14:39:00,
2013-03-26 10:44:00,34.7,30.1,30.09,NNE,22,0.0,0.0,83,0.00,,---,0.00,VWS V14.01,2013-03-26 14:44:00,
2013-03-26 10:49:00,34.9,30.3,30.08,North,360,0.0,0.0,83,0.00,,---,0.00,VWS V14.01,2013-03-26 14:49:00,
2013-03-26 10:54:00,34.6,30.3,30.09,North,11,0.0,0.0,84,0.00,,---,0.00,VWS V14.01,2013-03-26 14:54:00,
2013-03-26 10:59:00,34.6,30.6,30.09,North,360,0.0,0.0,85,0.00,,---,0.00,VWS V14.01,2013-03-26 14:59:00,
2013-03-26 11:04:00,34.6,30.6,30.09,NNE,18,0.0,0.0,85,0.00,,---,0.00,VWS V14.01,2013-03-26 15:04:00,
2013-03-26 11:09:00,34.6,30.6,30.09,NNW,346,0.0,0.0,85,0.00,,---,0.00,VWS V14.01,2013-03-26 15:09:00,
2013-03-26 11:14:00,34.6,30.6,30.09,NE,36,0.0,0.0,85,0.00,,---,0.00,VWS V14.01,2013-03-26 15:14:00,
2013-03-26 11:19:00,34.6,30.6,30.09,North,5,0.0,0.0,85,0.00,,---,0.00,VWS V14.01,2013-03-26 15:19:00,
2013-03-26 11:24:00,34.7,30.4,30.10,North,5,0.0,0.0,84,0.00,,---,0.00,VWS V14.01,2013-03-26 15:24:00,
2013-03-26 11:29:00,34.9,30.6,30.09,North,360,0.0,0.0,84,0.00,,---,0.00,VWS V14.01,2013-03-26 15:29:00,
2013-03-26 11:34:00,34.9,30.3,30.10,North,5,0.0,0.0,83,0.00,,---,0.00,VWS V14.01,2013-03-26 15:34:00,
2013-03-26 11:39:00,35.0,30.4,30.10,North,9,0.0,0.0,83,0.00,,---,0.00,VWS V14.01,2013-03-26 15:39:00,
2013-03-26 11:44:00,35.0,30.1,30.10,North,355,0.0,0.0,82,0.00,,---,0.00,VWS V14.01,2013-03-26 15:44:00,
2013-03-26 11:49:00,34.9,30.3,30.10,North,350,0.0,0.0,83,0.00,,---,0.00,VWS V14.01,2013-03-26 15:49:00,
2013-03-26 11:54:00,35.0,30.4,30.10,North,5,0.0,0.0,83,0.00,,---,0.00,VWS V14.01,2013-03-26 15:54:00,
2013-03-26 11:59:00,35.2,30.3,30.09,NNE,13,0.0,0.0,82,0.00,,---,0.00,VWS V14.01,2013-03-26 15:59:00,
2013-03-26 12:04:00,35.5,30.0,30.09,NNW,348,0.0,0.0,80,0.00,,---,0.00,VWS V14.01,2013-03-26 16:04:00,
2013-03-26 12:09:00,35.9,30.0,30.10,NNE,13,0.0,0.0,79,0.00,,---,0.00,VWS V14.01,2013-03-26 16:09:00,
2013-03-26 12:14:00,36.0,29.5,30.10,North,5,0.0,0.0,77,0.00,,---,0.00,VWS V14.01,2013-03-26 16:14:00,
2013-03-26 12:19:00,36.2,29.7,30.10,NNE,17,0.0,0.0,77,0.00,,---,0.00,VWS V14.01,2013-03-26 16:19:00,
2013-03-26 12:24:00,36.2,29.4,30.10,North,5,0.0,0.0,76,0.00,,---,0.00,VWS V14.01,2013-03-26 16:24:00,
2013-03-26 12:29:00,36.2,28.7,30.10,NNE,23,0.0,0.0,74,0.00,,---,0.00,VWS V14.01,2013-03-26 16:29:00,
2013-03-26 12:34:00,36.6,28.4,30.10,NNE,12,0.0,0.0,72,0.00,,---,0.00,VWS V14.01,2013-03-26 16:34:00,
2013-03-26 12:39:00,36.9,27.7,30.10,NNW,342,0.0,0.0,69,0.00,,---,0.00,VWS V14.01,2013-03-26 16:39:00,
2013-03-26 12:44:00,37.2,28.0,30.10,NNW,331,0.0,0.0,69,0.00,,---,0.00,VWS V14.01,2013-03-26 16:44:00,
2013-03-26 12:49:00,37.5,28.3,30.09,NNE,13,0.0,0.0,69,0.00,,---,0.00,VWS V14.01,2013-03-26 16:49:00,
2013-03-26 12:54:00,37.5,27.9,30.09,NNW,343,0.0,0.0,68,0.00,,---,0.00,VWS V14.01,2013-03-26 16:54:00,
2013-03-26 12:59:00,37.6,28.4,30.09,NNW,348,0.0,0.0,69,0.00,,---,0.00,VWS V14.01,2013-03-26 16:59:00,
2013-03-26 13:04:00,37.9,27.9,30.09,NNW,346,0.0,0.0,67,0.00,,---,0.00,VWS V14.01,2013-03-26 17:04:00,
2013-03-26 13:09:00,38.0,27.3,30.09,North,5,0.0,0.0,65,0.00,,---,0.00,VWS V14.01,2013-03-26 17:09:00,
2013-03-26 13:14:00,38.3,27.2,30.09,NNE,16,0.0,0.0,64,0.00,,---,0.00,VWS V14.01,2013-03-26 17:14:00,
2013-03-26 13:19:00,38.9,26.2,30.09,North,9,0.0,0.0,60,0.00,,---,0.00,VWS V14.01,2013-03-26 17:19:00,
2013-03-26 13:24:00,39.6,26.1,30.09,NNE,26,0.0,0.0,58,0.00,,---,0.00,VWS V14.01,2013-03-26 17:24:00,
2013-03-26 13:29:00,39.2,25.3,30.09,North,5,0.0,0.0,57,0.00,,---,0.00,VWS V14.01,2013-03-26 17:29:00,
2013-03-26 13:34:00,38.9,26.2,30.09,North,9,0.0,0.0,60,0.00,,---,0.00,VWS V14.01,2013-03-26 17:34:00,
2013-03-26 13:39:00,38.3,26.0,30.09,NNE,15,0.0,0.0,61,0.00,,---,0.00,VWS V14.01,2013-03-26 17:39:00,
2013-03-26 13:45:00,38.5,26.6,30.09,North,360,0.0,0.0,62,0.00,,---,0.00,VWS V14.01,2013-03-26 17:45:00,
2013-03-26 13:50:00,39.2,26.5,30.09,NNE,28,0.0,0.0,60,0.00,,---,0.00,VWS V14.01,2013-03-26 17:50:00,
2013-03-26 13:54:00,39.5,26.0,30.09,North,5,0.0,0.0,58,0.00,,---,0.00,VWS V14.01,2013-03-26 17:54:00,
2013-03-26 13:59:00,39.3,25.8,30.09,NNE,26,0.0,0.0,58,0.00,,---,0.00,VWS V14.01,2013-03-26 17:59:00,
2013-03-26 14:05:00,39.5,26.0,30.09,North,349,0.0,0.0,58,0.00,,---,0.00,VWS V14.01,2013-03-26 18:05:00,
2013-03-26 14:10:00,39.6,25.6,30.09,NNE,26,0.0,0.0,57,0.00,,---,0.00,VWS V14.01,2013-03-26 18:10:00,
2013-03-26 14:15:00,39.6,25.2,30.09,NNE,13,0.0,0.0,56,0.00,,---,0.00,VWS V14.01,2013-03-26 18:15:00,
2013-03-26 14:20:00,39.9,25.9,30.09,North,11,0.0,0.0,57,0.00,,---,0.00,VWS V14.01,2013-03-26 18:20:00,
2013-03-26 14:25:00,40.1,25.7,30.09,NNE,19,0.0,0.0,56,0.00,,---,0.00,VWS V14.01,2013-03-26 18:25:00,
2013-03-26 14:30:00,40.2,25.8,30.09,NNE,22,0.0,0.0,56,0.00,,---,0.00,VWS V14.01,2013-03-26 18:30:00,
2013-03-26 14:35:00,40.2,24.9,30.09,NE,43,0.0,0.0,54,0.00,,---,0.00,VWS V14.01,2013-03-26 18:35:00,
2013-03-26 14:40:00,40.2,24.9,30.09,NE,38,0.0,0.0,54,0.00,,---,0.00,VWS V14.01,2013-03-26 18:40:00,
2013-03-26 14:45:00,40.2,25.3,30.09,North,355,0.0,0.0,55,0.00,,---,0.00,VWS V14.01,2013-03-26 18:45:00,
2013-03-26 14:50:00,40.6,26.1,30.09,North,360,0.0,0.0,56,0.00,,---,0.00,VWS V14.01,2013-03-26 18:50:00,
2013-03-26 14:55:00,40.5,25.6,30.09,North,5,0.0,0.0,55,0.00,,---,0.00,VWS V14.01,2013-03-26 18:55:00,
2013-03-26 15:00:00,40.6,24.8,30.09,NNE,20,0.0,0.0,53,0.00,,---,0.00,VWS V14.01,2013-03-26 19:00:00,
2013-03-26 15:05:00,40.6,24.4,30.09,NNE,22,0.0,0.0,52,0.00,,---,0.00,VWS V14.01,2013-03-26 19:05:00,
2013-03-26 15:10:00,40.6,24.8,30.08,North,10,0.0,0.0,53,0.00,,---,0.00,VWS V14.01,2013-03-26 19:10:00,
2013-03-26 15:15:00,40.6,24.4,30.08,NNE,31,0.0,0.0,52,0.00,,---,0.00,VWS V14.01,2013-03-26 19:15:00,
2013-03-26 15:20:00,40.6,24.4,30.08,NNE,32,0.0,0.0,52,0.00,,---,0.00,VWS V14.01,2013-03-26 19:20:00,
2013-03-26 15:25:00,40.6,22.5,30.08,NNE,17,0.0,0.0,48,0.00,,---,0.00,VWS V14.01,2013-03-26 19:25:00,
2013-03-26 15:30:00,40.6,22.5,30.08,North,360,0.0,0.0,48,0.00,,---,0.00,VWS V14.01,2013-03-26 19:30:00,
2013-03-26 15:35:00,40.6,21.5,30.08,NNE,22,0.0,0.0,46,0.00,,---,0.00,VWS V14.01,2013-03-26 19:35:00,
2013-03-26 15:40:00,40.5,21.9,30.08,North,11,0.0,0.0,47,0.00,,---,0.00,VWS V14.01,2013-03-26 19:40:00,
2013-03-26 15:45:00,40.5,22.4,30.08,NNE,24,0.0,0.0,48,0.00,,---,0.00,VWS V14.01,2013-03-26 19:45:00,
2013-03-26 15:50:00,40.6,22.5,30.08,NNE,33,0.0,0.0,48,0.00,,---,0.00,VWS V14.01,2013-03-26 19:50:00,
2013-03-26 15:55:00,40.5,21.4,30.08,North,355,0.0,0.0,46,0.00,,---,0.00,VWS V14.01,2013-03-26 19:55:00,
2013-03-26 16:00:00,40.6,20.4,30.08,NNE,22,0.0,0.0,44,0.00,,---,0.00,VWS V14.01,2013-03-26 20:00:00,
2013-03-26 16:05:00,40.6,21.5,30.08,NE,43,0.0,0.0,46,0.00,,---,0.00,VWS V14.01,2013-03-26 20:05:00,
2013-03-26 16:10:00,40.6,22.0,30.08,NNE,24,0.0,0.0,47,0.00,,---,0.00,VWS V14.01,2013-03-26 20:10:00,
2013-03-26 16:15:00,40.6,22.5,30.07,North,9,0.0,0.0,48,0.00,,---,0.00,VWS V14.01,2013-03-26 20:15:00,
2013-03-26 16:20:00,40.8,22.1,30.08,North,9,0.0,0.0,47,0.00,,---,0.00,VWS V14.01,2013-03-26 20:20:00,
2013-03-26 16:25:00,40.8,22.1,30.08,NE,51,0.0,0.0,47,0.00,,---,0.00,VWS V14.01,2013-03-26 20:25:00,
2013-03-26 16:30:00,40.6,23.0,30.08,North,351,0.0,0.0,49,0.00,,---,0.00,VWS V14.01,2013-03-26 20:30:00,
2013-03-26 16:35:00,40.5,22.4,30.08,North,5,0.0,0.0,48,0.00,,---,0.00,VWS V14.01,2013-03-26 20:35:00,
2013-03-26 16:40:00,40.5,22.4,30.08,NNE,16,0.0,0.0,48,0.00,,---,0.00,VWS V14.01,2013-03-26 20:40:00,
2013-03-26 16:45:00,40.3,22.7,30.08,NNE,28,0.0,0.0,49,0.00,,---,0.00,VWS V14.01,2013-03-26 20:45:00,
2013-03-26 16:50:00,40.5,22.9,30.08,NNE,12,0.0,0.0,49,0.00,,---,0.00,VWS V14.01,2013-03-26 20:50:00,
2013-03-26 16:55:00,40.6,23.0,30.08,NNE,19,0.0,0.0,49,0.00,,---,0.00,VWS V14.01,2013-03-26 20:55:00,
2013-03-26 17:00:00,40.8,23.6,30.08,NNE,21,0.0,0.0,50,0.00,,---,0.00,VWS V14.01,2013-03-26 21:00:00,
2013-03-26 17:05:00,40.8,24.1,30.08,North,355,0.0,0.0,51,0.00,,---,0.00,VWS V14.01,2013-03-26 21:05:00,
2013-03-26 17:10:00,40.6,23.4,30.08,NNW,348,0.0,0.0,50,0.00,,---,0.00,VWS V14.01,2013-03-26 21:10:00,
2013-03-26 17:15:00,40.6,23.9,30.08,NNE,28,0.0,0.0,51,0.00,,---,0.00,VWS V14.01,2013-03-26 21:15:00,
2013-03-26 17:20:00,40.5,23.8,30.08,NNW,338,0.0,0.0,51,0.00,,---,0.00,VWS V14.01,2013-03-26 21:20:00,
2013-03-26 17:25:00,40.6,23.9,30.08,North,355,0.0,0.0,51,0.00,,---,0.00,VWS V14.01,2013-03-26 21:25:00,
2013-03-26 17:30:00,41.1,24.4,30.08,NNE,17,0.0,0.0,51,0.00,,---,0.00,VWS V14.01,2013-03-26 21:30:00,
2013-03-26 17:35:00,41.1,24.4,30.08,NNE,18,0.0,0.0,51,0.00,,---,0.00,VWS V14.01,2013-03-26 21:35:00,
2013-03-26 17:40:00,40.9,24.2,30.08,NNE,25,0.0,0.0,51,0.00,,---,0.00,VWS V14.01,2013-03-26 21:40:00,
2013-03-26 17:45:00,40.8,24.1,30.08,NNE,19,0.0,0.0,51,0.00,,---,0.00,VWS V14.01,2013-03-26 21:45:00,
2013-03-26 17:50:00,40.6,23.9,30.08,North,350,0.0,0.0,51,0.00,,---,0.00,VWS V14.01,2013-03-26 21:50:00,
2013-03-26 17:55:00,40.3,24.1,30.08,NNE,13,0.0,0.0,52,0.00,,---,0.00,VWS V14.01,2013-03-26 21:55:00,
2013-03-26 18:01:00,40.3,24.1,30.08,North,5,0.0,0.0,52,0.00,,---,0.00,VWS V14.01,2013-03-26 22:01:00,
2013-03-26 18:06:00,40.1,23.0,30.08,NNE,30,0.0,0.0,50,0.00,,---,0.00,VWS V14.01,2013-03-26 22:06:00,
2013-03-26 18:11:00,40.1,23.9,30.08,NNE,26,0.0,0.0,52,0.00,,---,0.00,VWS V14.01,2013-03-26 22:11:00,
2013-03-26 18:16:00,40.1,24.4,30.08,NNE,15,0.0,0.0,53,0.00,,---,0.00,VWS V14.01,2013-03-26 22:16:00,
2013-03-26 18:21:00,39.9,23.3,30.09,NNE,24,0.0,0.0,51,0.00,,---,0.00,VWS V14.01,2013-03-26 22:21:00,
2013-03-26 18:26:00,39.6,23.4,30.09,NNE,13,0.0,0.0,52,0.00,,---,0.00,VWS V14.01,2013-03-26 22:26:00,
2013-03-26 18:32:00,39.6,23.9,30.09,NNE,21,0.0,0.0,53,0.00,,---,0.00,VWS V14.01,2013-03-26 22:32:00,
2013-03-26 18:37:00,39.6,23.4,30.09,North,350,0.0,0.0,52,0.00,,---,0.00,VWS V14.01,2013-03-26 22:37:00,
2013-03-26 18:42:00,39.6,23.4,30.09,NNW,344,0.0,0.0,52,0.00,,---,0.00,VWS V14.01,2013-03-26 22:42:00,
2013-03-26 18:47:00,39.6,23.4,30.09,North,5,0.0,0.0,52,0.00,,---,0.00,VWS V14.01,2013-03-26 22:47:00,
2013-03-26 18:52:00,39.3,24.1,30.09,NNE,13,0.0,0.0,54,0.00,,---,0.00,VWS V14.01,2013-03-26 22:52:00,
2013-03-26 18:57:00,39.3,23.6,30.09,NNW,344,0.0,0.0,53,0.00,,---,0.00,VWS V14.01,2013-03-26 22:57:00,
2013-03-26 19:02:00,39.1,24.3,30.09,NNW,342,0.0,0.0,55,0.00,,---,0.00,VWS V14.01,2013-03-26 23:02:00,
2013-03-26 19:07:00,38.8,23.6,30.10,NNE,25,0.0,0.0,54,0.00,,---,0.00,VWS V14.01,2013-03-26 23:07:00,
2013-03-26 19:12:00,38.6,23.8,30.10,NNE,22,0.0,0.0,55,0.00,,---,0.00,VWS V14.01,2013-03-26 23:12:00,
2013-03-26 19:17:00,38.5,24.2,30.10,North,360,0.0,0.0,56,0.00,,---,0.00,VWS V14.01,2013-03-26 23:17:00,
2013-03-26 19:22:00,38.2,24.3,30.10,NNW,348,0.0,0.0,57,0.00,,---,0.00,VWS V14.01,2013-03-26 23:22:00,
2013-03-26 19:27:00,37.8,24.0,30.10,NNE,13,0.0,0.0,57,0.00,,---,0.00,VWS V14.01,2013-03-26 23:27:00,
2013-03-26 19:32:00,37.5,24.5,30.10,North,5,0.0,0.0,59,0.00,,---,0.00,VWS V14.01,2013-03-26 23:32:00,
2013-03-26 19:37:00,37.2,24.2,30.11,NNE,13,0.0,0.0,59,0.00,,---,0.00,VWS V14.01,2013-03-26 23:37:00,
2013-03-26 19:42:00,36.9,24.7,30.11,North,360,0.0,0.0,61,0.00,,---,0.00,VWS V14.01,2013-03-26 23:42:00,
2013-03-26 19:47:00,36.6,24.8,30.11,NNW,348,0.0,0.0,62,0.00,,---,0.00,VWS V14.01,2013-03-26 23:47:00,
2013-03-26 19:52:00,36.3,24.5,30.11,NNE,27,0.0,0.0,62,0.00,,---,0.00,VWS V14.01,2013-03-26 23:52:00,
2013-03-26 19:57:00,36.0,24.6,30.11,North,9,0.0,0.0,63,0.00,,---,0.00,VWS V14.01,2013-03-26 23:57:00,
2013-03-26 20:02:00,35.8,24.5,30.11,North,11,0.0,0.0,63,0.00,,---,0.00,VWS V14.01,2013-03-27 00:02:00,
2013-03-26 20:07:00,35.5,24.5,30.11,North,9,0.0,0.0,64,0.00,,---,0.00,VWS V14.01,2013-03-27 00:07:00,
2013-03-26 20:12:00,35.3,24.7,30.11,North,355,0.0,0.0,65,0.00,,---,0.00,VWS V14.01,2013-03-27 00:12:00,
2013-03-26 20:17:00,35.2,24.6,30.11,North,5,0.0,0.0,65,0.00,,---,0.00,VWS V14.01,2013-03-27 00:17:00,
2013-03-26 20:22:00,35.0,24.8,30.11,NNW,340,0.0,0.0,66,0.00,,---,0.00,VWS V14.01,2013-03-27 00:22:00,
2013-03-26 20:27:00,34.9,24.7,30.12,North,5,0.0,0.0,66,0.00,,---,0.00,VWS V14.01,2013-03-27 00:27:00,
2013-03-26 20:32:00,34.7,24.9,30.12,NNW,333,0.0,0.0,67,0.00,,---,0.00,VWS V14.01,2013-03-27 00:32:00,
2013-03-26 20:37:00,34.6,24.4,30.12,North,355,0.0,0.0,66,0.00,,---,0.00,VWS V14.01,2013-03-27 00:37:00,
2013-03-26 20:42:00,34.4,24.2,30.12,NNW,328,0.0,0.0,66,0.00,,---,0.00,VWS V14.01,2013-03-27 00:42:00,
2013-03-26 20:47:00,34.3,24.1,30.12,NNE,17,0.0,0.0,66,0.00,,---,0.00,VWS V14.01,2013-03-27 00:47:00,
2013-03-26 20:52:00,34.1,24.0,30.12,North,355,0.0,0.0,66,0.00,,---,0.00,VWS V14.01,2013-03-27 00:52:00,
2013-03-26 20:57:00,34.0,23.9,30.12,North,5,0.0,0.0,66,0.00,,---,0.00,VWS V14.01,2013-03-27 00:57:00,
2013-03-26 21:02:00,34.0,23.9,30.12,NNW,348,0.0,0.0,66,0.00,,---,0.00,VWS V14.01,2013-03-27 01:02:00,
2013-03-26 21:07:00,34.0,23.9,30.12,NNE,22,0.0,0.0,66,0.00,,---,0.00,VWS V14.01,2013-03-27 01:07:00,
2013-03-26 21:12:00,33.8,23.7,30.13,North,360,0.0,0.0,66,0.00,,---,0.00,VWS V14.01,2013-03-27 01:12:00,
2013-03-26 21:17:00,33.8,23.7,30.13,NNE,22,0.0,0.0,66,0.00,,---,0.00,VWS V14.01,2013-03-27 01:17:00,
2013-03-26 21:22:00,33.7,23.9,30.13,North,355,0.0,0.0,67,0.00,,---,0.00,VWS V14.01,2013-03-27 01:22:00,
2013-03-26 21:27:00,33.7,23.9,30.13,North,355,0.0,0.0,67,0.00,,---,0.00,VWS V14.01,2013-03-27 01:27:00,
2013-03-26 21:33:00,33.5,23.7,30.13,NW,312,0.0,0.0,67,0.00,,---,0.00,VWS V14.01,2013-03-27 01:33:00,
2013-03-26 21:38:00,33.4,23.6,30.13,North,355,0.0,0.0,67,0.00,,---,0.00,VWS V14.01,2013-03-27 01:38:00,
2013-03-26 21:43:00,33.2,23.8,30.15,NNW,347,0.0,0.0,68,0.00,,---,0.00,VWS V14.01,2013-03-27 01:43:00,
2013-03-26 21:48:00,33.2,23.8,30.15,NNE,17,0.0,0.0,68,0.00,,---,0.00,VWS V14.01,2013-03-27 01:48:00,
2013-03-26 21:53:00,33.1,24.0,30.15,North,5,0.0,0.0,69,0.00,,---,0.00,VWS V14.01,2013-03-27 01:53:00,
2013-03-26 21:58:00,33.1,24.0,30.15,North,5,0.0,0.0,69,0.00,,---,0.00,VWS V14.01,2013-03-27 01:58:00,
2013-03-26 22:03:00,33.1,24.4,30.15,North,355,0.0,0.0,70,0.00,,---,0.00,VWS V14.01,2013-03-27 02:03:00,
2013-03-26 22:08:00,32.9,24.2,30.15,NNE,25,0.0,0.0,70,0.00,,---,0.00,VWS V14.01,2013-03-27 02:08:00,
2013-03-26 22:13:00,32.9,24.2,30.15,North,5,0.0,0.0,70,0.00,,---,0.00,VWS V14.01,2013-03-27 02:13:00,
2013-03-26 22:18:00,32.8,24.5,30.15,NNE,19,0.0,0.0,71,0.00,,---,0.00,VWS V14.01,2013-03-27 02:18:00,
2013-03-26 22:23:00,32.7,24.4,30.15,North,360,0.0,0.0,71,0.00,,---,0.00,VWS V14.01,2013-03-27 02:23:00,
2013-03-26 22:28:00,32.5,24.5,30.15,NNW,346,0.0,0.0,72,0.00,,---,0.00,VWS V14.01,2013-03-27 02:28:00,
2013-03-26 22:33:00,32.5,24.5,30.15,North,355,0.0,0.0,72,0.00,,---,0.00,VWS V14.01,2013-03-27 02:33:00,
2013-03-26 22:38:00,32.4,24.4,30.15,NNW,346,0.0,0.0,72,0.00,,---,0.00,VWS V14.01,2013-03-27 02:38:00,
2013-03-26 22:43:00,32.2,24.2,30.15,NNW,348,0.0,0.0,72,0.00,,---,0.00,VWS V14.01,2013-03-27 02:43:00,
2013-03-26 22:48:00,32.2,24.5,30.15,NNE,32,0.0,0.0,73,0.00,,---,0.00,VWS V14.01,2013-03-27 02:48:00,
2013-03-26 22:53:00,32.1,24.4,30.15,NNE,29,0.0,0.0,73,0.00,,---,0.00,VWS V14.01,2013-03-27 02:53:00,
2013-03-26 22:58:00,32.1,24.4,30.15,NNE,28,0.0,0.0,73,0.00,,---,0.00,VWS V14.01,2013-03-27 02:58:00,
2013-03-26 23:03:00,32.1,24.1,30.15,NNW,331,0.0,0.0,72,0.00,,---,0.00,VWS V14.01,2013-03-27 03:03:00,
2013-03-26 23:08:00,32.1,24.1,30.15,NNE,15,0.0,0.0,72,0.00,,---,0.00,VWS V14.01,2013-03-27 03:08:00,
2013-03-26 23:13:00,31.9,23.9,30.15,NNE,15,0.0,0.0,72,0.00,,---,0.00,VWS V14.01,2013-03-27 03:13:00,
2013-03-26 23:18:00,31.6,24.0,30.15,West,273,0.0,0.0,73,0.00,,---,0.00,VWS V14.01,2013-03-27 03:18:00,
2013-03-26 23:23:00,31.5,24.2,30.15,WNW,292,0.0,0.0,74,0.00,,---,0.00,VWS V14.01,2013-03-27 03:23:00,
2013-03-26 23:28:00,31.5,24.5,30.15,North,5,0.0,0.0,75,0.00,,---,0.00,VWS V14.01,2013-03-27 03:28:00,
2013-03-26 23:33:00,31.6,24.6,30.15,North,9,0.0,0.0,75,0.00,,---,0.00,VWS V14.01,2013-03-27 03:33:00,
2013-03-26 23:38:00,31.8,24.8,30.15,NNE,17,0.0,0.0,75,0.00,,---,0.00,VWS V14.01,2013-03-27 03:38:00,
2013-03-26 23:43:00,31.8,24.8,30.15,North,360,0.0,0.0,75,0.00,,---,0.00,VWS V14.01,2013-03-27 03:43:00,
2013-03-26 23:48:00,31.8,24.8,30.15,North,5,0.0,0.0,75,0.00,,---,0.00,VWS V14.01,2013-03-27 03:48:00,
2013-03-26 23:53:00,31.8,24.8,30.16,North,5,0.0,0.0,75,0.00,,---,0.00,VWS V14.01,2013-03-27 03:53:00,
2013-03-26 23:58:00,31.6,24.6,30.16,North,5,0.0,0.0,75,0.00,,---,0.00,VWS V14.01,2013-03-27 03:58:00,